QPF
0.01 0.00 0.00 0.00 0.00 0.00 0.00 0.00 0.00 0.00 0.00 0.00 0.00 0.00 0.01 0.01 0.01 0.01 0.01 0.01 0.00 0.00 0.01 0.02 0.04 0.05 0.06 0.06 0.06 0.07 0.07 0.08 0.09 0.08 0.08 0.07 0.06 0.05 0.04 0.04 0.04 0.04 0.04
0.02 0.01 0.00 0.00 0.01 0.01 0.00 0.00 0.00 0.00 0.00 0.00 0.00 0.00 0.01 0.01 0.01 0.01 0.01 0.01 0.01 0.01 0.01 0.02 0.03 0.04 0.05 0.06 0.07 0.07 0.07 0.08 0.09 0.09 0.10 0.09 0.08 0.06 0.05 0.04 0.04 0.03 0.03
0.02 0.02 0.00 0.00 0.01 0.01 0.01 0.00 0.00 0.01 0.01 0.01 0.01 0.01 0.01 0.01 0.01 0.01 0.01 0.01 0.01 0.01 0.01 0.01 0.02 0.03 0.04 0.06 0.07 0.09 0.09 0.08 0.08 0.08 0.09 0.09 0.09 0.07 0.06 0.05 0.04 0.03 0.03
0.01 0.02 0.01 0.00 0.00 0.01 0.01 0.02 0.01 0.01 0.01 0.01 0.01 0.00 0.00 0.01 0.01 0.01 0.01 0.01 0.01 0.01 0.01 0.01 0.02 0.02 0.04 0.05 0.06 0.07 0.08 0.09 0.09 0.08 0.08 0.08 0.08 0.08 0.07 0.06 0.05 0.04 0.04
0.00 0.01 0.01 0.01 0.01 0.00 0.00 0.01 0.01 0.01 0.01 0.01 0.01 0.00 0.00 0.01 0.01 0.01 0.01 0.01 0.01 0.01 0.01 0.01 0.01 0.02 0.04 0.05 0.06 0.06 0.07 0.09 0.10 0.11 0.10 0.09 0.08 0.08 0.07 0.07 0.06 0.06 0.06
0.00 0.00 0.01 0.01 0.01 0.01 0.00 0.00 0.00 0.00 0.00 0.00 0.00 0.00 0.00 0.01 0.01 0.01 0.01 0.01 0.01 0.01 0.02 0.01 0.01 0.02 0.02 0.03 0.04 0.04 0.05 0.07 0.09 0.11 0.11 0.11 0.10 0.09 0.09 0.08 0.08 0.07 0.07
0.00 0.00 0.00 0.01 0.01 0.00 0.00 0.00 0.00 0.00 0.00 0.00 0.00 0.00 0.00 0.00 0.01 0.01 0.01 0.02 0.02 0.02 0.02 0.02 0.02 0.01 0.02 0.02 0.02 0.02 0.03 0.05 0.08 0.10 0.12 0.13 0.15 0.15 0.13 0.11 0.08 0.07 0.07
0.00 0.00 0.00 0.00 0.00 0.00 0.00 0.00 0.00 0.00 0.00 0.00 0.00 0.00 0.00 0.01 0.01 0.01 0.01 0.01 0.01 0.02 0.02 0.02 0.02 0.02 0.02 0.02 0.02 0.02 0.02 0.03 0.05 0.08 0.11 0.13 0.14 0.15 0.15 0.14 0.12 0.09 0.07
0.00 0.00 0.00 0.00 0.00 0.00 0.00 0.00 0.00 0.00 0.00 0.00 0.00 0.00 0.01 0.01 0.01 0.01 0.02 0.01 0.01 0.01 0.02 0.02 0.02 0.02 0.02 0.02 0.02 0.02 0.02 0.02 0.04 0.06 0.09 0.11 0.12 0.12 0.12 0.12 0.12 0.11 0.08
0.00 0.00 0.00 0.00 0.00 0.00 0.00 0.00 0.00 0.00 0.00 0.00 0.00 0.00 0.01 0.01 0.01 0.01 0.01 0.01 0.01 0.01 0.02 0.02 0.02 0.02 0.02 0.02 0.03 0.03 0.04 0.04 0.04 0.07 0.08 0.10 0.13 0.15 0.15 0.13 0.13 0.12 0.12
0.00 0.00 0.00 0.00 0.00 0.00 0.00 0.00 0.00 0.00 0.00 0.00 0.00 0.01 0.01 0.01 0.01 0.01 0.01 0.01 0.01 0.01 0.02 0.02 0.03 0.03 0.02 0.02 0.03 0.03 0.04 0.04 0.06 0.08 0.08 0.10 0.11 0.14 0.18 0.19 0.17 0.15 0.14
0.00 0.00 0.00 0.00 0.00 0.00 0.00 0.00 0.00 0.00 0.00 0.00 0.01 0.01 0.01 0.01 0.01 0.01 0.01 0.01 0.02 0.03 0.04 0.03 0.04 0.04 0.04 0.03 0.04 0.05 0.04 0.03 0.04 0.04 0.05 0.07 0.11 0.12 0.13 0.15 0.16 0.16 0.15
0.00 0.00 0.00 0.00 0.00 0.00 0.00 0.00 0.00 0.00 0.00 0.00 0.00 0.00 0.01 0.01 0.01 0.01 0.01 0.02 0.02 0.02 0.03 0.03 0.04 0.04 0.03 0.04 0.04 0.04 0.04 0.03 0.03 0.03 0.04 0.05 0.08 0.10 0.12 0.14 0.13 0.13 0.14
0.00 0.00 0.00 0.00 0.00 0.00 0.00 0.00 0.00 0.00 0.00 0.00 0.00 0.00 0.00 0.01 0.01 0.01 0.01 0.02 0.03 0.03 0.03 0.03 0.05 0.06 0.06 0.08 0.07 0.05 0.04 0.04 0.04 0.04 0.05 0.06 0.08 0.09 0.10 0.11 0.13 0.12 0.11
0.00 0.00 0.00 0.00 0.00 0.00 0.00 0.00 0.00 0.00 0.00 0.00 0.00 0.00 0.01 0.01 0.01 0.01 0.01 0.02 0.03 0.04 0.03 0.03 0.03 0.04 0.05 0.06 0.07 0.06 0.04 0.04 0.04 0.04 0.04 0.05 0.07 0.09 0.09 0.09 0.10 0.10 0.10
0.00 0.00 0.00 0.00 0.00 0.00 0.00 0.00 0.00 0.00 0.00 0.00 0.00 0.01 0.01 0.01 0.01 0.01 0.01 0.01 0.02 0.03 0.03 0.02 0.02 0.02 0.03 0.03 0.04 0.04 0.04 0.05 0.05 0.04 0.04 0.04 0.05 0.08 0.09 0.08 0.09 0.09 0.08
0.00 0.00 0.00 0.00 0.00 0.00 0.00 0.00 0.00 0.00 0.00 0.01 0.01 0.01 0.01 0.01 0.01 0.01 0.01 0.01 0.02 0.02 0.03 0.03 0.03 0.03 0.02 0.02 0.03 0.03 0.04 0.04 0.05 0.06 0.05 0.05 0.05 0.06 0.07 0.08 0.09 0.09 0.09
0.00 0.00 0.00 0.00 0.00 0.00 0.00 0.00 0.00 0.01 0.01 0.01 0.01 0.01 0.01 0.01 0.01 0.01 0.01 0.01 0.02 0.02 0.03 0.04 0.03 0.03 0.03 0.02 0.03 0.04 0.04 0.05 0.07 0.08 0.08 0.07 0.06 0.06 0.07 0.07 0.08 0.08 0.09
0.00 0.00 0.00 0.00 0.00 0.00 0.01 0.01 0.01 0.01 0.02 0.01 0.01 0.01 0.01 0.01 0.01 0.01 0.01 0.01 0.02 0.02 0.03 0.04 0.04 0.04 0.03 0.03 0.03 0.03 0.04 0.05 0.08 0.09 0.10 0.11 0.10 0.09 0.09 0.09 0.08 0.08 0.08
0.00 0.00 0.00 0.00 0.00 0.01 0.01 0.01 0.01 0.01 0.01 0.01 0.01 0.01 0.01 0.01 0.01 0.01 0.01 0.02 0.02 0.02 0.03 0.04 0.04 0.04 0.04 0.04 0.04 0.04 0.04 0.05 0.08 0.10 0.10 0.11 0.12 0.11 0.11 0.10 0.10 0.08 0.07
0.00 0.00 0.00 0.01 0.00 0.00 0.01 0.01 0.01 0.01 0.01 0.01 0.01 0.01 0.01 0.01 0.01 0.01 0.01 0.01 0.01 0.02 0.03 0.04 0.04 0.04 0.04 0.05 0.05 0.06 0.06 0.06 0.08 0.09 0.08 0.09 0.11 0.12 0.12 0.11 0.10 0.10 0.09
0.00 0.00 0.01 0.00 0.00 0.01 0.01 0.01 0.01 0.01 0.01 0.01 0.01 0.01 0.01 0.01 0.01 0.01 0.02 0.02 0.02 0.03 0.04 0.05 0.04 0.05 0.05 0.05 0.06 0.07 0.08 0.08 0.10 0.10 0.10 0.13 0.12 0.13 0.14 0.14 0.12 0.10 0.10
0.00 0.00 0.00 0.00 0.00 0.01 0.01 0.01 0.01 0.01 0.01 0.01 0.01 0.01 0.01 0.01 0.02 0.02 0.02 0.02 0.03 0.03 0.04 0.05 0.05 0.05 0.05 0.05 0.06 0.08 0.10 0.10 0.10 0.11 0.13 0.14 0.14 0.13 0.14 0.16 0.13 0.10 0.10
0.00 0.00 0.00 0.00 0.01 0.01 0.01 0.01 0.01 0.01 0.01 0.01 0.01 0.01 0.01 0.02 0.03 0.03 0.02 0.02 0.02 0.02 0.03 0.04 0.04 0.04 0.05 0.05 0.06 0.07 0.10 0.11 0.11 0.11 0.12 0.14 0.14 0.14 0.15 0.15 0.13 0.10 0.09
0.00 0.00 0.00 0.00 0.01 0.00 0.01 0.01 0.01 0.01 0.01 0.01 0.01 0.02 0.02 0.03 0.03 0.03 0.03 0.03 0.03 0.03 0.04 0.05 0.05 0.05 0.06 0.07 0.08 0.09 0.10 0.12 0.12 0.11 0.10 0.13 0.14 0.15 0.14 0.14 0.11 0.10 0.09
0.00 0.00 0.00 0.00 0.00 0.00 0.01 0.01 0.01 0.01 0.02 0.02 0.02 0.02 0.03 0.04 0.04 0.03 0.03 0.04 0.05 0.04 0.04 0.04 0.04 0.05 0.06 0.06 0.08 0.08 0.09 0.10 0.10 0.10 0.09 0.11 0.12 0.12 0.13 0.11 0.09 0.08 0.08
MSLP
1015.18 1014.84 1014.46 1014.05 1013.63 1013.21 1012.79 1012.39 1012.00 1011.61 1011.22 1010.82 1010.40 1009.98 1009.56 1009.15 1008.76 1008.40 1008.06 1007.74 1007.44 1007.15 1006.87 1006.60 1006.34 1006.11 1005.92 1005.75 1005.60 1005.46 1005.31 1005.12 1004.90 1004.65 1004.37 1004.10 1003.87 1003.71 1003.62 1003.63 1003.75 1003.94 1004.20
1015.10 1014.76 1014.39 1014.00 1013.60 1013.19 1012.79 1012.38 1011.96 1011.53 1011.08 1010.60 1010.11 1009.62 1009.14 1008.68 1008.26 1007.88 1007.53 1007.21 1006.90 1006.60 1006.31 1006.03 1005.77 1005.53 1005.32 1005.14 1004.98 1004.83 1004.66 1004.48 1004.26 1004.01 1003.75 1003.49 1003.26 1003.08 1002.98 1002.96 1003.02 1003.16 1003.36
1015.02 1014.67 1014.31 1013.94 1013.56 1013.18 1012.79 1012.38 1011.94 1011.46 1010.95 1010.40 1009.84 1009.28 1008.74 1008.24 1007.78 1007.37 1007.00 1006.66 1006.34 1006.03 1005.73 1005.43 1005.14 1004.88 1004.64 1004.43 1004.25 1004.08 1003.91 1003.73 1003.52 1003.30 1003.07 1002.84 1002.63 1002.46 1002.35 1002.30 1002.32 1002.40 1002.53
1014.94 1014.58 1014.23 1013.87 1013.52 1013.15 1012.77 1012.35 1011.88 1011.36 1010.80 1010.19 1009.57 1008.94 1008.34 1007.79 1007.29 1006.84 1006.45 1006.08 1005.75 1005.42 1005.09 1004.77 1004.46 1004.16 1003.89 1003.65 1003.44 1003.26 1003.08 1002.91 1002.73 1002.54 1002.35 1002.17 1001.99 1001.85 1001.73 1001.66 1001.62 1001.64 1001.69
1014.85 1014.48 1014.12 1013.78 1013.43 1013.07 1012.68 1012.25 1011.76 1011.21 1010.59 1009.93 1009.25 1008.57 1007.91 1007.31 1006.76 1006.28 1005.85 1005.45 1005.09 1004.73 1004.39 1004.04 1003.70 1003.39 1003.10 1002.84 1002.61 1002.41 1002.24 1002.09 1001.94 1001.79 1001.65 1001.51 1001.37 1001.24 1001.12 1001.01 1000.93 1000.86 1000.84
1014.75 1014.37 1014.00 1013.65 1013.29 1012.93 1012.53 1012.07 1011.55 1010.96 1010.31 1009.60 1008.87 1008.14 1007.44 1006.79 1006.20 1005.67 1005.20 1004.77 1004.37 1003.99 1003.62 1003.26 1002.92 1002.59 1002.30 1002.04 1001.81 1001.63 1001.47 1001.34 1001.22 1001.11 1001.00 1000.89 1000.78 1000.65 1000.52 1000.38 1000.23 1000.09 999.97
1014.66 1014.24 1013.86 1013.48 1013.11 1012.72 1012.29 1011.80 1011.25 1010.63 1009.94 1009.20 1008.43 1007.67 1006.93 1006.24 1005.60 1005.03 1004.52 1004.05 1003.62 1003.22 1002.83 1002.47 1002.13 1001.82 1001.55 1001.31 1001.11 1000.95 1000.82 1000.71 1000.62 1000.53 1000.45 1000.35 1000.23 1000.10 999.94 999.76 999.55 999.34 999.15
1014.56 1014.11 1013.69 1013.28 1012.87 1012.44 1011.97 1011.45 1010.86 1010.21 1009.49 1008.73 1007.95 1007.16 1006.41 1005.69 1005.02 1004.41 1003.86 1003.35 1002.89 1002.47 1002.08 1001.73 1001.41 1001.14 1000.90 1000.71 1000.55 1000.42 1000.32 1000.23 1000.15 1000.06 999.97 999.85 999.72 999.56 999.37 999.14 998.90 998.63 998.38
1014.46 1013.97 1013.51 1013.05 1012.59 1012.11 1011.59 1011.02 1010.40 1009.72 1008.99 1008.23 1007.45 1006.68 1005.92 1005.19 1004.50 1003.87 1003.28 1002.74 1002.26 1001.82 1001.43 1001.09 1000.81 1000.58 1000.40 1000.25 1000.14 1000.04 999.95 999.86 999.76 999.65 999.52 999.36 999.19 998.99 998.76 998.51 998.24 997.96 997.68
1014.35 1013.83 1013.31 1012.79 1012.27 1011.73 1011.16 1010.55 1009.90 1009.21 1008.49 1007.74 1006.99 1006.24 1005.50 1004.79 1004.10 1003.46 1002.85 1002.29 1001.78 1001.33 1000.94 1000.62 1000.37 1000.17 1000.03 999.93 999.84 999.76 999.67 999.55 999.40 999.23 999.03 998.81 998.57 998.32 998.07 997.81 997.54 997.27 997.01
1014.25 1013.67 1013.10 1012.52 1011.93 1011.32 1010.69 1010.05 1009.38 1008.69 1008.00 1007.29 1006.59 1005.89 1005.20 1004.52 1003.86 1003.21 1002.60 1002.02 1001.49 1001.03 1000.64 1000.32 1000.08 999.91 999.79 999.70 999.62 999.52 999.39 999.21 998.98 998.72 998.42 998.11 997.79 997.50 997.22 996.96 996.73 996.51 996.30
1014.14 1013.51 1012.87 1012.22 1011.56 1010.89 1010.22 1009.54 1008.87 1008.20 1007.54 1006.90 1006.27 1005.65 1005.02 1004.40 1003.77 1003.15 1002.54 1001.95 1001.41 1000.92 1000.51 1000.19 999.94 999.76 999.63 999.52 999.41 999.25 999.05 998.78 998.44 998.05 997.63 997.21 996.81 996.46 996.15 995.91 995.72 995.57 995.45
1014.03 1013.34 1012.63 1011.91 1011.18 1010.46 1009.74 1009.05 1008.38 1007.74 1007.14 1006.58 1006.03 1005.49 1004.95 1004.39 1003.82 1003.23 1002.63 1002.04 1001.48 1000.97 1000.54 1000.18 999.90 999.68 999.51 999.35 999.16 998.92 998.61 998.22 997.75 997.23 996.68 996.14 995.64 995.21 994.87 994.63 994.48 994.40 994.37
1013.90 1013.14 1012.37 1011.58 1010.80 1010.03 1009.29 1008.58 1007.93 1007.34 1006.80 1006.31 1005.84 1005.39 1004.93 1004.45 1003.93 1003.38 1002.80 1002.22 1001.65 1001.11 1000.64 1000.23 999.90 999.62 999.38 999.14 998.86 998.52 998.09 997.57 996.96 996.30 995.61 994.94 994.33 993.82 993.43 993.17 993.03 993.00 993.03
1013.75 1012.93 1012.09 1011.25 1010.42 1009.62 1008.87 1008.17 1007.54 1006.99 1006.51 1006.08 1005.69 1005.31 1004.93 1004.51 1004.04 1003.53 1002.97 1002.39 1001.81 1001.25 1000.74 1000.29 999.89 999.54 999.22 998.89 998.51 998.07 997.53 996.89 996.16 995.37 994.56 993.76 993.04 992.42 991.94 991.63 991.46 991.42 991.48
1013.57 1012.69 1011.80 1010.92 1010.07 1009.26 1008.50 1007.82 1007.22 1006.70 1006.26 1005.88 1005.54 1005.21 1004.88 1004.50 1004.08 1003.59 1003.06 1002.49 1001.90 1001.33 1000.78 1000.28 999.83 999.42 999.03 998.62 998.17 997.64 997.02 996.30 995.48 994.59 993.67 992.77 991.92 991.19 990.61 990.19 989.94 989.84 989.87
1013.37 1012.45 1011.53 1010.63 1009.77 1008.97 1008.23 1007.57 1006.99 1006.49 1006.06 1005.70 1005.37 1005.06 1004.74 1004.38 1003.98 1003.51 1002.99 1002.43 1001.85 1001.27 1000.71 1000.19 999.71 999.25 998.81 998.36 997.87 997.31 996.65 995.90 995.04 994.10 993.12 992.14 991.20 990.35 989.63 989.08 988.70 988.49 988.44
1013.16 1012.21 1011.29 1010.40 1009.57 1008.79 1008.08 1007.43 1006.86 1006.36 1005.93 1005.55 1005.20 1004.86 1004.52 1004.15 1003.74 1003.28 1002.77 1002.23 1001.67 1001.10 1000.55 1000.03 999.54 999.08 998.63 998.18 997.69 997.14 996.50 995.77 994.94 994.02 993.03 992.01 991.01 990.06 989.21 988.51 987.97 987.61 987.43
1012.96 1012.02 1011.12 1010.27 1009.48 1008.74 1008.06 1007.43 1006.86 1006.34 1005.87 1005.44 1005.03 1004.64 1004.25 1003.84 1003.40 1002.94 1002.44 1001.92 1001.38 1000.85 1000.33 999.83 999.37 998.93 998.52 998.10 997.66 997.17 996.62 995.97 995.22 994.37 993.43 992.43 991.41 990.40 989.46 988.62 987.93 987.42 987.09
1012.81 1011.90 1011.05 1010.26 1009.53 1008.84 1008.20 1007.58 1007.00 1006.44 1005.91 1005.40 1004.91 1004.44 1003.98 1003.51 1003.05 1002.57 1002.08 1001.59 1001.09 1000.60 1000.13 999.69 999.27 998.88 998.52 998.17 997.82 997.43 996.99 996.47 995.85 995.12 994.30 993.38 992.40 991.38 990.39 989.47 988.66 988.01 987.55
1012.74 1011.89 1011.11 1010.40 1009.74 1009.11 1008.49 1007.89 1007.28 1006.68 1006.07 1005.48 1004.90 1004.33 1003.79 1003.27 1002.77 1002.28 1001.81 1001.35 1000.90 1000.47 1000.05 999.67 999.31 998.98 998.69 998.42 998.15 997.88 997.57 997.20 996.75 996.19 995.51 994.73 993.84 992.89 991.92 990.96 990.10 989.36 988.81
1012.78 1012.01 1011.32 1010.69 1010.10 1009.52 1008.94 1008.34 1007.71 1007.05 1006.37 1005.69 1005.02 1004.38 1003.77 1003.20 1002.67 1002.18 1001.73 1001.31 1000.91 1000.53 1000.18 999.85 999.55 999.28 999.04 998.84 998.66 998.49 998.31 998.08 997.79 997.41 996.92 996.30 995.57 994.74 993.84 992.94 992.09 991.33 990.74
1012.96 1012.28 1011.67 1011.12 1010.59 1010.06 1009.50 1008.90 1008.25 1007.55 1006.82 1006.07 1005.33 1004.62 1003.97 1003.37 1002.83 1002.35 1001.93 1001.55 1001.20 1000.87 1000.57 1000.28 1000.02 999.78 999.58 999.42 999.30 999.20 999.12 999.02 998.87 998.66 998.34 997.91 997.35 996.69 995.94 995.15 994.37 993.67 993.10
1013.26 1012.67 1012.15 1011.67 1011.19 1010.70 1010.16 1009.56 1008.89 1008.16 1007.39 1006.60 1005.83 1005.10 1004.42 1003.81 1003.28 1002.83 1002.44 1002.09 1001.79 1001.50 1001.23 1000.97 1000.72 1000.50 1000.31 1000.15 1000.05 999.98 999.95 999.93 999.89 999.80 999.64 999.37 999.00 998.52 997.95 997.32 996.68 996.08 995.57
1013.68 1013.17 1012.71 1012.29 1011.85 1011.38 1010.86 1010.26 1009.58 1008.84 1008.07 1007.27 1006.50 1005.77 1005.11 1004.52 1004.02 1003.60 1003.24 1002.93 1002.65 1002.39 1002.13 1001.88 1001.62 1001.38 1001.17 1001.00 1000.87 1000.79 1000.76 1000.77 1000.78 1000.78 1000.72 1000.59 1000.38 1000.07 999.67 999.21 998.73 998.27 997.86
1014.16 1013.72 1013.32 1012.93 1012.52 1012.07 1011.55 1010.96 1010.29 1009.57 1008.81 1008.04 1007.30 1006.60 1005.98 1005.43 1004.96 1004.58 1004.25 1003.97 1003.71 1003.45 1003.20 1002.93 1002.66 1002.39 1002.14 1001.92 1001.75 1001.63 1001.57 1001.55 1001.56 1001.59 1001.59 1001.54 1001.44 1001.26 1001.01 1000.71 1000.37 1000.04 999.75
Thickness
5662 5663 5663 5663 5663 5663 5663 5663 5664 5664 5664 5665 5665 5665 5665 5665 5665 5665 5665 5665 5665 5665 5665 5666 5666 5666 5667 5667 5668 5668 5669 5670 5670 5670 5670 5671 5671 5670 5670 5670 5669 5668 5667
5656 5655 5655 5655 5655 5655 5655 5655 5655 5655 5656 5656 5656 5656 5657 5657 5657 5657 5657 5656 5656 5656 5656 5657 5657 5658 5659 5659 5660 5660 5661 5662 5663 5663 5664 5664 5664 5664 5664 5664 5664 5663 5662
5648 5648 5647 5647 5647 5647 5647 5647 5647 5647 5647 5647 5647 5647 5647 5647 5648 5648 5648 5648 5647 5647 5647 5647 5648 5649 5649 5650 5650 5651 5652 5653 5654 5655 5656 5657 5657 5658 5657 5658 5657 5657 5657
5641 5640 5640 5639 5639 5638 5638 5637 5637 5636 5635 5635 5636 5636 5637 5637 5637 5638 5637 5637 5637 5637 5637 5637 5638 5638 5639 5640 5640 5641 5642 5643 5644 5645 5646 5648 5648 5649 5650 5650 5650 5651 5650
5633 5633 5632 5631 5630 5629 5629 5628 5627 5625 5624 5624 5625 5626 5627 5627 5627 5627 5626 5626 5625 5625 5625 5626 5626 5627 5627 5628 5629 5630 5631 5632 5634 5635 5636 5638 5639 5640 5641 5642 5643 5644 5644
5626 5625 5624 5623 5622 5620 5619 5618 5616 5615 5614 5613 5615 5617 5617 5617 5617 5616 5615 5614 5613 5613 5613 5613 5613 5614 5615 5616 5617 5618 5619 5621 5622 5624 5626 5627 5629 5630 5632 5634 5635 5636 5637
5618 5617 5615 5614 5613 5611 5609 5608 5606 5604 5602 5602 5602 5604 5607 5608 5608 5606 5604 5602 5602 5601 5601 5600 5600 5601 5601 5602 5603 5604 5606 5607 5609 5611 5614 5616 5618 5620 5622 5624 5626 5628 5628
5610 5609 5607 5605 5604 5602 5599 5597 5595 5593 5591 5588 5585 5586 5589 5594 5596 5596 5593 5591 5590 5589 5589 5588 5588 5588 5588 5589 5590 5590 5592 5593 5596 5598 5600 5603 5605 5608 5611 5613 5614 5617 5619
5602 5601 5599 5597 5595 5592 5589 5587 5584 5582 5579 5577 5573 5568 5567 5571 5577 5583 5582 5580 5578 5576 5575 5575 5575 5575 5575 5575 5576 5577 5578 5580 5582 5585 5587 5589 5592 5595 5598 5600 5603 5606 5608
5594 5592 5590 5588 5585 5583 5580 5577 5575 5571 5568 5565 5562 5558 5555 5553 5552 5562 5568 5566 5564 5563 5562 5562 5561 5561 5560 5561 5563 5564 5565 5567 5569 5570 5572 5574 5577 5581 5585 5588 5591 5594 5597
5586 5584 5581 5579 5576 5573 5570 5568 5565 5562 5558 5554 5551 5548 5545 5542 5538 5537 5546 5551 5551 5550 5549 5547 5546 5546 5546 5547 5549 5550 5552 5553 5554 5555 5557 5559 5562 5566 5570 5574 5577 5581 5584
5577 5575 5572 5569 5566 5564 5561 5558 5555 5552 5548 5545 5541 5537 5533 5529 5527 5524 5526 5532 5534 5537 5536 5535 5532 5532 5532 5533 5533 5535 5536 5537 5538 5539 5541 5543 5547 5550 5555 5558 5562 5567 5571
5567 5565 5562 5559 5557 5554 5552 5549 5546 5542 5539 5535 5531 5527 5524 5521 5517 5513 5512 5515 5519 5524 5524 5523 5519 5518 5518 5518 5519 5519 5520 5521 5523 5524 5526 5528 5531 5535 5539 5543 5547 5553 5557
5559 5556 5553 5550 5547 5545 5542 5539 5536 5533 5529 5525 5522 5518 5514 5512 5508 5504 5500 5497 5501 5509 5512 5511 5508 5505 5504 5504 5504 5504 5507 5507 5509 5511 5513 5515 5518 5521 5525 5529 5534 5539 5543
5550 5547 5544 5541 5538 5536 5533 5530 5527 5523 5520 5516 5513 5509 5505 5503 5499 5495 5490 5485 5481 5486 5498 5500 5495 5494 5491 5491 5491 5491 5492 5494 5496 5498 5501 5503 5506 5510 5514 5517 5521 5526 5531
5540 5537 5534 5531 5529 5526 5523 5520 5517 5514 5510 5507 5503 5500 5497 5494 5490 5486 5481 5477 5472 5469 5477 5485 5483 5481 5479 5479 5479 5479 5480 5482 5485 5487 5490 5492 5495 5500 5503 5507 5510 5514 5519
5530 5527 5524 5522 5519 5516 5514 5510 5507 5504 5501 5497 5494 5490 5488 5484 5481 5477 5473 5468 5464 5459 5462 5472 5471 5469 5467 5466 5468 5468 5469 5471 5474 5477 5479 5482 5486 5490 5494 5497 5500 5504 5508
5519 5517 5514 5512 5509 5506 5503 5499 5496 5493 5490 5487 5484 5480 5478 5475 5471 5467 5463 5459 5455 5452 5450 5455 5460 5458 5457 5455 5456 5457 5459 5461 5463 5467 5469 5472 5476 5481 5485 5487 5490 5494 5498
5509 5506 5503 5501 5498 5495 5492 5489 5486 5483 5479 5476 5473 5470 5468 5464 5461 5457 5453 5450 5447 5445 5442 5442 5447 5448 5447 5445 5445 5447 5449 5450 5453 5457 5460 5463 5467 5471 5475 5479 5482 5486 5490
5498 5495 5493 5490 5487 5484 5481 5478 5474 5471 5468 5466 5463 5460 5457 5454 5451 5448 5445 5442 5439 5437 5435 5434 5436 5437 5437 5436 5434 5436 5440 5441 5443 5447 5452 5456 5460 5462 5467 5471 5476 5479 5483
5487 5484 5482 5479 5476 5473 5470 5467 5464 5461 5458 5456 5454 5451 5448 5446 5443 5439 5437 5434 5431 5429 5428 5427 5428 5429 5428 5427 5425 5426 5429 5432 5435 5437 5442 5448 5451 5455 5458 5462 5467 5471 5475
5476 5473 5470 5468 5465 5463 5460 5457 5454 5452 5450 5447 5445 5443 5440 5437 5435 5432 5430 5428 5425 5422 5420 5420 5421 5420 5420 5418 5418 5418 5419 5422 5427 5431 5432 5438 5441 5445 5449 5453 5458 5463 5467
5465 5463 5460 5457 5455 5452 5450 5447 5445 5443 5440 5437 5435 5433 5432 5430 5426 5425 5423 5422 5419 5416 5415 5413 5413 5413 5412 5412 5410 5412 5413 5414 5417 5420 5423 5429 5433 5436 5440 5444 5450 5455 5459
5455 5452 5449 5447 5444 5442 5440 5438 5436 5433 5431 5428 5426 5424 5423 5421 5419 5417 5416 5415 5414 5412 5409 5408 5407 5408 5407 5407 5406 5407 5408 5410 5412 5415 5417 5420 5424 5428 5433 5438 5442 5446 5450
5445 5442 5440 5437 5434 5432 5430 5428 5427 5424 5422 5421 5419 5418 5416 5414 5413 5410 5409 5409 5409 5408 5406 5405 5404 5403 5404 5404 5403 5403 5404 5405 5408 5411 5411 5413 5417 5420 5425 5429 5434 5438 5443
5435 5433 5431 5427 5425 5423 5421 5419 5418 5416 5415 5414 5413 5412 5410 5408 5407 5405 5404 5402 5402 5402 5401 5401 5401 5401 5401 5402 5401 5400 5400 5402 5403 5405 5407 5409 5412 5414 5418 5422 5427 5432 5436